| time (UTC) | temp F | wind direction | speed MPH | gust MPH | rain 1hr in | rain 24hr in | rain mn in | humidity % | barometer mb |
| 20260508141020 | 55 | 321 | 5.0 | 9.0 | 0.00 | 0.01 | 1.68 | 45 | 1017.0 |
| 20260508135220 | 56 | 337 | 5.0 | 9.0 | 0.00 | 0.01 | 1.68 | 46 | 1017.0 |
| 20260508134320 | 55 | 327 | 6.0 | 9.0 | 0.00 | 0.01 | 1.68 | 46 | 1016.7 |
| 20260508133420 | 55 | 327 | 5.0 | 8.0 | 0.00 | 0.01 | 1.68 | 45 | 1016.9 |
| 20260508132520 | 55 | 320 | 5.0 | 9.0 | 0.00 | 0.01 | 1.68 | 45 | 1016.9 |
| 20260508131620 | 55 | 312 | 5.0 | 8.0 | 0.00 | 0.01 | 1.68 | 45 | 1016.7 |
| 20260508125819 | 55 | 323 | 5.0 | 8.0 | 0.00 | 0.01 | 1.68 | 48 | 1016.6 |
| 20260508124920 | 55 | 320 | 5.0 | 8.0 | 0.00 | 0.01 | 1.68 | 48 | 1016.6 |
| 20260508124019 | 55 | 321 | 5.0 | 8.0 | 0.00 | 0.01 | 1.68 | 47 | 1016.5 |
| 20260508123120 | 55 | 329 | 4.0 | 8.0 | 0.00 | 0.01 | 1.68 | 46 | 1016.5 |
| 20260508122220 | 55 | 331 | 4.0 | 7.0 | 0.00 | 0.01 | 1.68 | 46 | 1016.3 |
| 20260508121320 | 56 | 313 | 3.0 | 7.0 | 0.00 | 0.01 | 1.68 | 48 | 1016.3 |
| 20260508120420 | 55 | 305 | 3.0 | 5.0 | 0.00 | 0.01 | 1.68 | 49 | 1016.4 |
| 20260508115520 | 55 | 292 | 3.0 | 5.0 | 0.00 | 0.01 | 1.68 | 47 | 1016.4 |
| 20260508114620 | 55 | 302 | 3.0 | 6.0 | 0.00 | 0.01 | 1.68 | 49 | 1016.3 |
| 20260508113720 | 55 | 278 | 3.0 | 5.0 | 0.00 | 0.01 | 1.68 | 49 | 1016.5 |
| 20260508111920 | 55 | 331 | 4.0 | 6.0 | 0.00 | 0.01 | 1.68 | 50 | 1015.9 |
| 20260508111020 | 55 | 332 | 3.0 | 6.0 | 0.00 | 0.01 | 1.68 | 51 | 1015.9 |
| 20260508110120 | 56 | 339 | 4.0 | 7.0 | 0.00 | 0.01 | 1.68 | 50 | 1015.9 |
| 20260508105221 | 56 | 330 | 4.0 | 8.0 | 0.00 | 0.01 | 1.68 | 50 | 1015.6 |
| 20260508104320 | 57 | 315 | 4.0 | 7.0 | 0.00 | 0.01 | 1.68 | 50 | 1015.5 |
| 20260508103420 | 57 | 297 | 3.0 | 6.0 | 0.00 | 0.01 | 1.68 | 51 | 1015.6 |
| 20260508102520 | 56 | 313 | 4.0 | 5.0 | 0.00 | 0.01 | 1.68 | 51 | 1015.5 |
| 20260508101621 | 55 | 318 | 4.0 | 7.0 | 0.00 | 0.01 | 1.68 | 51 | 1015.7 |
| 20260508100720 | 54 | 304 | 3.0 | 5.0 | 0.00 | 0.01 | 1.68 | 52 | 1015.4 |
| 20260508094920 | 55 | 292 | 4.0 | 7.0 | 0.00 | 0.01 | 1.68 | 49 | 1015.5 |
| 20260508094020 | 55 | 296 | 4.0 | 6.0 | 0.00 | 0.01 | 1.68 | 50 | 1015.2 |
| 20260508093120 | 55 | 292 | 4.0 | 6.0 | 0.00 | 0.01 | 1.68 | 51 | 1015.0 |
| 20260508092220 | 56 | 301 | 3.0 | 4.0 | 0.00 | 0.01 | 1.68 | 53 | 1014.9 |
| 20260508091320 | 56 | 291 | 3.0 | 5.0 | 0.00 | 0.01 | 1.68 | 55 | 1014.9 |
| 20260508085520 | 56 | 296 | 3.0 | 6.0 | 0.00 | 0.01 | 1.68 | 60 | 1014.8 |
| 20260508084620 | 54 | 284 | 4.0 | 6.0 | 0.00 | 0.01 | 1.68 | 61 | 1014.6 |
| 20260508083721 | 54 | 290 | 3.0 | 7.0 | 0.00 | 0.01 | 1.68 | 65 | 1014.6 |
| 20260508082820 | 53 | 282 | 4.0 | 7.0 | 0.00 | 0.01 | 1.68 | 67 | 1014.6 |
| 20260508081920 | 53 | 309 | 4.0 | 8.0 | 0.00 | 0.01 | 1.68 | 69 | 1014.6 |
| 20260508081020 | 53 | 294 | 4.0 | 8.0 | 0.00 | 0.01 | 1.68 | 70 | 1014.6 |
| 20260508080120 | 53 | 292 | 4.0 | 8.0 | 0.00 | 0.01 | 1.68 | 72 | 1014.5 |
| 20260508075220 | 53 | 290 | 3.0 | 8.0 | 0.00 | 0.01 | 1.68 | 74 | 1014.3 |
| 20260508074320 | 53 | 293 | 3.0 | 6.0 | 0.00 | 0.01 | 1.68 | 76 | 1014.3 |
| 20260508073420 | 52 | 289 | 3.0 | 6.0 | 0.00 | 0.01 | 1.68 | 77 | 1014.1 |
| 20260508072520 | 52 | 276 | 2.0 | 4.0 | 0.00 | 0.01 | 1.68 | 79 | 1014.1 |
| 20260508070720 | 51 | 267 | 2.0 | 5.0 | 0.00 | 0.01 | 1.68 | 80 | 1013.7 |
| 20260508064920 | 50 | 210 | 1.0 | 4.0 | 0.00 | 0.01 | 1.68 | 80 | 1013.4 |
| 20260508064020 | 50 | 234 | 1.0 | 3.0 | 0.00 | 0.01 | 1.68 | 80 | 1013.4 |
| 20260508063120 | 49 | 218 | 1.0 | 2.0 | 0.00 | 0.01 | 1.68 | 80 | 1013.5 |
| 20260508062220 | 49 | 160 | 1.0 | 2.0 | 0.00 | 0.01 | 1.68 | 80 | 1013.2 |
| 20260508061320 | 48 | 124 | 0.0 | 2.0 | 0.00 | 0.01 | 1.68 | 80 | 1013.2 |
| 20260507230643 | 48 | 116 | 1.0 | 2.0 | 0.00 | 0.00 | 0.00 | 75 | 1014.2 |
| 20260507225745 | 48 | 207 | 1.0 | 2.0 | 0.00 | 0.00 | 0.00 | 75 | 1014.0 |
| 20260507223943 | 48 | 175 | 1.0 | 2.0 | 0.00 | 0.00 | 0.00 | 75 | 1013.8 |
| 20260507223043 | 48 | 154 | 1.0 | 2.0 | 0.00 | 0.00 | 0.00 | 74 | 1013.8 |
| 20260507222143 | 48 | 149 | 1.0 | 2.0 | 0.00 | 0.00 | 0.00 | 74 | 1013.9 |
| 20260507221243 | 49 | 172 | 1.0 | 3.0 | 0.00 | 0.00 | 0.00 | 74 | 1013.8 |
| 20260507220343 | 49 | 173 | 1.0 | 4.0 | 0.00 | 0.00 | 0.00 | 74 | 1013.8 |
| 20260507215443 | 49 | 188 | 0.0 | 2.0 | 0.00 | 0.00 | 0.00 | 74 | 1013.9 |
| 20260507214543 | 49 | 192 | 0.0 | 2.0 | 0.00 | 0.00 | 0.00 | 74 | 1013.8 |
| 20260507213643 | 49 | 176 | 0.0 | 2.0 | 0.00 | 0.00 | 0.00 | 74 | 1013.7 |
| 20260507212743 | 49 | 246 | 0.0 | 2.0 | 0.00 | 0.00 | 0.00 | 73 | 1013.7 |
| 20260507211843 | 49 | 248 | 1.0 | 2.0 | 0.00 | 0.00 | 0.00 | 73 | 1014.0 |
| 20260507210943 | 49 | 265 | 2.0 | 4.0 | 0.00 | 0.00 | 0.00 | 73 | 1013.9 |
| 20260507205143 | 50 | 312 | 3.0 | 5.0 | 0.00 | 0.00 | 0.00 | 72 | 1013.4 |
| 20260507204243 | 50 | 286 | 2.0 | 4.0 | 0.00 | 0.00 | 0.00 | 72 | 1013.3 |
| 20260507203343 | 51 | 306 | 3.0 | 8.0 | 0.00 | 0.00 | 0.00 | 72 | 1013.5 |
| 20260507202443 | 51 | 296 | 3.0 | 7.0 | 0.00 | 0.00 | 0.00 | 72 | 1013.4 |
| 20260507201543 | 51 | 293 | 3.0 | 8.0 | 0.00 | 0.00 | 0.00 | 71 | 1013.4 |
| 20260507200643 | 51 | 189 | 1.0 | 3.0 | 0.00 | 0.00 | 0.00 | 71 | 1013.3 |
| 20260507195743 | 51 | 249 | 1.0 | 4.0 | 0.00 | 0.00 | 0.00 | 71 | 1013.2 |
| 20260507194843 | 50 | 293 | 1.0 | 2.0 | 0.00 | 0.00 | 0.00 | 70 | 1013.2 |
| 20260507193943 | 50 | 316 | 1.0 | 3.0 | 0.00 | 0.00 | 0.00 | 70 | 1013.1 |
| 20260507193043 | 50 | 7 | 1.0 | 3.0 | 0.00 | 0.00 | 0.00 | 68 | 1012.9 |
| 20260507192143 | 51 | 114 | 1.0 | 4.0 | 0.00 | 0.00 | 0.00 | 67 | 1012.8 |
| 20260507191243 | 51 | 114 | 1.0 | 4.0 | 0.00 | 0.00 | 0.00 | 67 | 1012.5 |
| 20260507190343 | 51 | 8 | 1.0 | 3.0 | 0.00 | 0.00 | 0.00 | 65 | 1012.7 |
| 20260507183643 | 52 | 311 | 3.0 | 5.0 | 0.00 | 0.00 | 0.00 | 61 | 1012.5 |
| 20260507182743 | 52 | 337 | 4.0 | 7.0 | 0.00 | 0.00 | 0.00 | 60 | 1012.3 |
| 20260507181844 | 53 | 332 | 4.0 | 8.0 | 0.00 | 0.00 | 0.00 | 56 | 1012.2 |
| 20260507180944 | 54 | 287 | 4.0 | 8.0 | 0.00 | 0.00 | 0.00 | 51 | 1012.1 |
| 20260507180044 | 55 | 295 | 4.0 | 9.0 | 0.00 | 0.00 | 0.00 | 51 | 1012.1 |
| 20260507175144 | 55 | 257 | 3.0 | 6.0 | 0.00 | 0.00 | 0.00 | 52 | 1012.1 |
| 20260507174243 | 56 | 269 | 3.0 | 5.0 | 0.00 | 0.00 | 0.00 | 53 | 1012.2 |
| 20260507170643 | 54 | 306 | 7.0 | 14.0 | 0.00 | 0.00 | 0.00 | 52 | 1011.8 |
| 20260507165744 | 56 | 281 | 7.0 | 13.0 | 0.00 | 0.00 | 0.00 | 52 | 1012.0 |
| 20260507164844 | 56 | 267 | 6.0 | 11.0 | 0.00 | 0.00 | 0.00 | 51 | 1012.0 |
| 20260507163943 | 56 | 286 | 4.0 | 8.0 | 0.00 | 0.00 | 0.00 | 50 | 1012.0 |
| 20260507161244 | 56 | 257 | 2.0 | 6.0 | 0.00 | 0.00 | 0.00 | 47 | 1011.9 |
| 20260507155445 | 56 | 244 | 3.0 | 9.0 | 0.00 | 0.00 | 0.00 | 44 | 1011.9 |
| 20260507154543 | 56 | 327 | 3.0 | 7.0 | 0.00 | 0.00 | 0.00 | 42 | 1012.0 |
| 20260507153644 | 58 | 185 | 6.0 | 13.0 | 0.00 | 0.00 | 0.00 | 41 | 1011.5 |
| 20260507152743 | 57 | 159 | 9.0 | 14.0 | 0.00 | 0.00 | 0.00 | 41 | 1011.9 |
| 20260507151844 | 58 | 166 | 9.0 | 13.0 | 0.00 | 0.00 | 0.00 | 40 | 1011.9 |
| 20260507150944 | 58 | 169 | 10.0 | 16.0 | 0.00 | 0.00 | 0.00 | 36 | 1011.7 |
| 20260507150043 | 59 | 175 | 9.0 | 17.0 | 0.00 | 0.00 | 0.00 | 32 | 1011.6 |
| 20260507145144 | 60 | 174 | 6.0 | 12.0 | 0.00 | 0.00 | 0.00 | 30 | 1011.7 |
| 20260507144244 | 61 | 181 | 5.0 | 10.0 | 0.00 | 0.00 | 0.00 | 30 | 1011.8 |
| 20260507143344 | 62 | 130 | 6.0 | 10.0 | 0.00 | 0.00 | 0.00 | 31 | 1012.0 |